Location: D?browa
(50.2277°N, 19.2127°E)
Time: 05:33:37
(UTC+00:00)

Daily predictions for brighter satellites

Satellite Brightness Start Highest point End
(mag) Time Altitude Azimuth Time Altitude Azimuth Time Altitude Azimuth
ADEOS II 4.5 01:20:26 10° NNE 01:21:30 16° NNE 01:21:30 16° NNE
USA 238 DEB 4.4 01:36:37 47° ESE 01:36:37 47° ESE 01:42:29 10° NE
USA 238 4.4 01:36:42 46° ESE 01:36:42 46° ESE 01:42:35 10° NE
NOSS 3-2 (A) 4.3 01:40:46 45° E 01:40:46 45° E 01:45:49 10° NE
USA 234 3.4 01:50:44 10° ENE 01:56:38 69° NNE 01:56:38 69° NNE
ADEOS Rocket 3.4 02:00:15 10° SE 02:05:31 51° ENE 02:11:00 10° N
IDEFIX/ARIANE 42P 3.8 02:04:01 10° NNE 02:06:55 34° NNE 02:06:55 34° NNE
Cosmos 44 Rocket 4.3 02:32:18 39° SSE 02:32:18 39° SSE 02:35:34 10° SSE
Cosmos 1656 3.8 02:31:46 66° SSE 02:31:46 66° SSE 02:36:38 10° SSE
Lacrosse 4 Rocket 2.4 02:36:55 42° E 02:36:55 42° E 02:40:14 10° NE
Cosmos 2180 Rocket 4.4 02:33:33 10° N 02:39:53 86° E 02:46:05 10° S
NOSS 3-2 (C) 3.4 02:38:52 60° SSW 02:39:58 77° SE 02:46:37 10° NE
CZ-4B R/B 3.0 02:43:19 10° SE 02:46:29 35° ENE 02:47:06 32° NE
Cosmos 2344 3.5 02:47:18 49° WSW 02:49:37 78° NW 02:58:00 10° NE
Cosmos 1025 Rocket 4.0 02:51:26 38° N 02:51:26 38° N 02:54:14 10° N
Cosmos 2142 Rocket 4.4 02:44:00 10° NNW 02:54:54 17° SSW 02:56:15 10° S
CENTAUR R/B 2.5 02:49:21 50° SW 02:51:11 86° SE 02:58:28 10° NE
Cosmos 1697 Rocket 2.7 02:49:21 26° NNW 02:52:40 81° ENE 02:58:20 10° SSE
COSMOS 2406 3.6 02:49:39 25° S 02:52:54 61° ESE 02:58:29 10° NE
GP-B 4.5 02:55:50 28° N 02:55:50 28° N 02:57:59 10° N
Cosmos 2228 4.1 02:50:04 10° N 02:54:17 45° ENE 02:58:29 10° SSE
Lacrosse 5 rocket 2.6 02:55:14 28° SE 02:55:34 29° SE 02:58:51 10° ENE
ALOS 3.7 02:52:03 10° NNE 02:56:25 37° E 03:00:45 10° SSE
Cosmos 1606 Rocket 4.5 02:55:58 10° N 03:00:20 49° ENE 03:04:41 10° SSE
ARIANE 5 R/B 4.0 02:58:25 10° N 03:00:44 22° NNW 03:00:44 22° NNW
CZ-3B R/B 4.0 02:59:50 38° WNW 03:03:02 74° SSW 03:34:37 10° SE
ADEOS II 4.2 03:01:25 10° NNW 03:02:26 13° NNW 03:02:26 13° NNW
COSMO-SKYMED 1 4.0 03:07:50 10° SE 03:11:52 39° ENE 03:15:56 10° N
Cosmos 1689 Rocket 4.4 03:10:04 10° SE 03:12:32 25° ENE 03:15:02 10° N
Cosmos 2279 Rocket 4.1 03:07:40 10° NNW 03:13:33 46° W 03:19:23 10° SSW
Cosmos 1980 Rocket 2.4 03:09:19 10° NNW 03:14:56 68° ENE 03:20:30 10° SE
CZ-2C R/B 2.3 03:11:05 10° N 03:16:06 69° WNW 03:18:24 31° SSW
ISS -2.5 03:21:42 30° S 03:22:22 33° SSE 03:25:27 10° E
Cosmos 220 Rocket 3.9 03:21:06 23° NNW 03:23:54 80° WSW 03:28:19 10° SSE
USA 290 4.2 03:21:50 10° S 03:24:42 30° ESE 03:27:35 10° NE
Cosmos 1400 Rocket 3.4 03:21:28 10° N 03:25:24 56° ENE 03:29:15 10° SSE
USA 238 DEB 3.9 03:24:05 34° W 03:26:53 54° NW 03:33:45 10° NE
USA 238 3.9 03:24:10 34° W 03:26:59 54° NW 03:33:51 10° NE
ERS-2 2.7 03:23:28 10° S 03:26:06 41° SSW 03:26:06 41° SSW
MSX 4.4 03:23:31 10° N 03:28:37 34° WNW 03:29:27 33° WNW
Cosmos 2360 4.1 03:23:58 13° NNW 03:29:05 71° WSW 03:34:43 10° SSE
SAR-Lupe-4 3.6 03:25:42 10° SSE 03:29:16 79° ENE 03:32:52 10° NNW
deb Chang Zheng 4 3.9 03:25:36 10° NNE 03:29:50 64° ESE 03:34:04 10° S
Cosmos 1536 Rocket 3.9 03:30:13 41° WNW 03:30:18 41° WNW 03:34:34 10° N
NOSS 3-2 (A) 3.9 03:28:10 33° W 03:30:29 47° NNW 03:37:09 10° NE
PAYLOAD A 4.2 03:26:34 10° N 03:31:26 48° WNW 03:34:01 26° SW
Cosmos 2058 Rocket 3.9 03:27:58 10° N 03:32:25 53° ENE 03:36:48 10° SSE
Aureole 3 4.1 03:31:54 10° N 03:35:48 60° ENE 03:40:43 10° SSE
ADEOS 3.5 03:32:58 10° NNE 03:38:14 90° ESE 03:43:29 10° SSW
ATLAS 3B R/B 3.0 03:31:54 10° SSW 03:38:22 64° SE 03:44:58 10° NE
KORONAS-FOTON 4.4 03:38:53 36° WNW 03:38:53 36° WNW 03:42:11 10° N
USA 234 3.7 03:33:38 10° ENE 03:39:54 50° N 03:43:58 22° WNW
CREW DRAGON DEMO-1 DEB 2.6 03:39:57 65° WNW 03:40:20 84° NNE 03:43:21 10° ESE
Cosmos 2278 3.6 03:37:34 10° NNW 03:43:14 77° WSW 03:48:52 10° SSE
Cosmos 1269 Rocket 4.4 03:42:34 26° WSW 03:45:03 43° WNW 03:50:08 10° NNE
Cosmos 1892 Rocket 4.0 03:40:50 10° S 03:45:08 65° E 03:49:30 10° NNE
Geosat 4.4 03:40:32 10° S 03:45:14 40° WSW 03:48:27 19° NW
Cosmos 2322 Rocket 3.6 03:40:43 10° NNW 03:45:58 36° NE 03:51:09 10° ESE
SAR-Lupe-1 3.9 03:43:37 10° S 03:47:10 70° WSW 03:50:46 10° NNW
SL-19 R/B 3.9 03:44:23 10° NNE 03:47:12 61° ESE 03:50:00 10° S
IDEFIX/ARIANE 42P 4.1 03:44:52 10° NNW 03:47:43 17° NW 03:47:43 17° NW
SL-14 R/B 3.2 03:45:39 10° SSW 03:49:37 72° WNW 03:53:40 10° N
Cosmos 1300 2.6 03:45:54 10° NNW 03:49:42 63° W 03:53:28 10° S
PSLV R/B 4.3 03:45:59 10° N 03:49:47 32° WNW 03:50:52 28° W
ADEOS Rocket 3.5 03:46:50 10° SSW 03:51:27 27° W 03:56:10 10° NW
Cosmos 1833 Rocket 2.7 03:49:09 10° SW 03:54:46 66° WNW 04:00:25 10° NNE
Cosmos 1315 Rocket 4.1 03:51:47 10° N 03:55:44 44° ENE 03:59:42 10° SE
Cosmos 1461 3.2 03:51:17 10° SW 03:55:52 84° SE 04:00:37 10° NE
Meteor 2-10 Rocket 4.1 03:51:22 10° N 03:56:20 58° ENE 04:01:20 10° SSE
Cosmos 1674 4.0 03:59:39 22° WNW 03:59:39 22° WNW 04:02:11 10° NNW
SKYMED 2 3.5 03:55:31 10° S 03:59:51 74° WSW 04:04:14 10° NNW
Cosmos 1626 2.5 04:00:31 10° SW 04:04:00 39° WNW 04:07:30 10° N
METEOR-M 4.1 04:00:03 10° N 04:05:23 71° WNW 04:10:42 10° SSW
Cosmos 1484 Rocket 3.0 04:02:06 10° N 04:05:49 44° WNW 04:09:28 10° SW
Cosmos 2369 4.2 04:01:21 10° NW 04:06:29 36° WSW 04:11:34 10° S
Meteor 1-24 Rocket 3.7 04:01:14 10° SSW 04:06:51 72° WNW 04:12:45 10° N
H-2A R/B 4.1 04:08:31 10° NNE 04:12:11 43° E 04:15:51 10° S
PSLV R/B 4.0 04:10:36 10° S 04:14:44 59° WSW 04:18:56 10° NNW
ARGOS Delta rocket 4.1 04:09:41 10° N 04:15:01 68° WNW 04:20:28 10° SSW
Lacrosse 4 Rocket 2.4 04:13:16 19° W 04:15:12 27° NW 04:18:42 10° NNE
Cosmos 2082 Rocket 2.1 04:09:50 10° SW 04:15:26 76° WNW 04:21:06 10° NNE
deb Kosmos-1763 4.5 04:15:13 10° SW 04:18:36 39° WNW 04:22:01 10° N
CZ-4B R/B 2.9 04:16:18 10° SW 04:18:50 19° W 04:20:13 15° WNW
SL-16 R/B 2.6 04:15:55 10° NNW 04:21:37 69° ENE 04:27:16 10° SE
Cosmos 1726 Rocket 4.2 04:18:35 10° NNW 04:22:36 34° W 04:26:36 10° SSW
Cosmos 1092 Rocket 4.1 04:16:54 10° SSW 04:22:56 55° WNW 04:29:05 10° N
CZ-4B R/B 2.8 04:20:05 10° N 04:24:03 69° WNW 04:28:12 10° SSW
Meteor 2-1 Rocket 4.3 04:19:35 10° NNW 04:25:16 86° ENE 04:31:03 10° SSE
Meteor PRIRODA 3.5 04:21:47 10° N 04:25:25 72° WNW 04:29:03 10° SSW
Abrixas rocket 3.5 04:25:26 14° WSW 04:27:05 22° SSW 04:29:23 10° SSE
CZ-3 R/B 4.3 04:15:21 10° WSW 04:28:38 22° SSW 04:34:38 10° SSE
Cosmos 2333 Rocket 4.2 04:24:41 10° NNW 04:29:15 24° NE 04:33:45 10° E
ASTRO F (AKARI) 4.4 04:25:53 10° N 04:29:27 72° WNW 04:32:50 10° SSW
Meteor 1-31 Rocket 3.4 04:26:33 10° N 04:30:09 34° WNW 04:33:43 10° SW
NOSS 3-2 (C) 4.2 04:26:20 12° W 04:31:30 38° NNW 04:38:00 10° NE
Cosmos 2228 4.2 04:28:14 10° NW 04:31:32 21° W 04:34:51 10° SW
MOS 1 Rocket 3.4 04:27:59 10° SSE 04:32:14 72° ENE 04:36:33 10° N
ALOS 3.0 04:29:39 10° N 04:33:45 31° WNW 04:37:51 10° SW
Lacrosse 5 rocket 1.2 04:30:54 10° WSW 04:34:29 58° NNW 04:38:19 10° NE
Meteor 2-5 Rocket 4.3 04:29:17 10° SW 04:34:34 37° WNW 04:39:59 10° N
Cosmos 1697 Rocket 4.0 04:32:04 10° WNW 04:35:57 19° W 04:39:49 10° SW
COSMOS 2406 4.0 04:32:37 10° WSW 04:37:36 31° NW 04:42:37 10° NNE
Cosmos 1455 2.2 04:34:39 10° N 04:38:34 85° WSW 04:42:25 10° S
S3M 4.1 04:35:24 10° N 04:41:44 87° W 04:48:06 10° S
Cosmos 1655 Rocket 4.4 04:36:21 10° S 04:42:36 75° E 04:48:57 10° NNE
CENTAUR R/B 3.4 04:36:42 10° W 04:42:44 38° NNW 04:49:48 10° NE
Cosmos 1703 4.4 04:39:44 10° S 04:43:29 50° E 04:47:16 10° NNE
Cosmos 1689 Rocket 3.6 04:41:37 10° SW 04:43:43 18° W 04:45:49 10° NW
PSLV R/B 3.9 04:40:25 10° NNE 04:44:34 88° WNW 04:48:41 10° SSW
ATLAS CENTAUR R/B 3.5 04:41:20 10° S 04:44:43 28° ESE 04:47:59 10° ENE
FENGYUN 3A 4.4 04:41:05 10° N 04:45:48 31° WNW 04:50:30 10° WSW
Cosmos 192 4.4 04:41:00 10° NNW 04:46:01 86° ENE 04:50:58 10° SSE
Cosmos 2251 Rocket 3.9 04:41:01 10° SW 04:46:08 45° WNW 04:51:16 10° NNE
Cosmos 2360 Rocket 3.0 04:41:56 10° NNW 04:47:28 53° NE 04:52:57 10° SE
Cosmos 614 Rocket 3.9 04:42:51 10° SSW 04:48:00 74° WNW 04:53:08 10° NNE
COSMO-SKYMED 1 3.6 04:44:30 10° SSW 04:48:09 26° W 04:51:50 10° NW
Meteor 1-21 Rocket 4.5 04:45:24 10° S 04:51:13 85° E 04:57:10 10° NNE
YAOGAN 6 3.1 04:47:35 10° NNE 04:51:17 69° E 04:54:56 10° S
Cosmos 2266 Rocket 4.4 04:47:03 10° S 04:53:01 70° E 04:59:06 10° NNE
CZ-2C R/B 4.2 04:51:09 10° NNW 04:53:23 13° NW 04:55:37 10° WNW
